Погода в Калише

Польша     51°44′45″N   18°04′49″E
темп.,
°C
ветер,
м/с
пор.,
м/с
влажн.,
%
обл.,
%
осадки,
мм/ч
давл.,
гПа
погр.,
м
2 марта, вт
вт201:00+1зюз34930 0.0 103661
04:00+1зюз34930 0.0 103460
07:00+1з34930 0.0 103589
10:00+6зсз46740 0.0 1034323
13:00+10зсз46630 0.0 1034501
16:00+10зсз46660 0.0 1032437
19:00+6зсз33830 0.0 103336
22:00+4сз22850 0.0 103322
3 марта, ср
ср301:00+3ссз11860 0.0 103422
04:00+2юз11850 0.0 103122
07:00+2юз12840 0.0 103122
10:00+8юз22630 0.0 1030260
13:00+11юз23530 0.0 1028528
16:00+12юз235713 0.0 1024133
19:00+7зюз237211 0.0 102424
22:00+6зюз47772 0.0 1022132
4 марта, чт
чт401:00+4зюз49871 0.0 1020190
04:00+4зюз4119023 0.0 1018236
07:00+4зюз5109420 0.0 1016264
10:00+8з7117650 0.0 1014696
13:00+10з7106675 0.0 10131027
16:00+10з6967100 0.0 10101128
19:00+7з61076100 0.1 1010511
22:00+4с4682100 0.1 1011580
5 марта, пт
пт501:00+2ссз3695100 0.6 1012373
04:000ссв71186100 1.0 1014660
07:00−1с5983100 1.0 1017664
10:00+1с575522 0.0 10191184
13:00+3с563711 0.0 10201741
16:00+3сз67468 0.1 10211649
19:000зсз346436 0.1 102365
22:00−1сз376546 0.1 1025201
6 марта, сб
сб601:00−1з5106770 0.1 1026458
04:00−1сз510710 0.0 1026531
07:00−2сз59650 0.0 1028784
10:00+1сз57370 0.0 10291490
13:00+4зсз57370 0.0 10281916
16:00+4з710360 0.0 10261822
19:00+1зюз6135123 0.0 1025448
22:00+1з71382100 0.0 1025719